Regional Weather Roundup
Issued by NWS

Home | Current Version | Previous Version | Graphics & Text | Print | Product List | Glossary On
Versions: 1 2 3 4 5 6 7 8 9 10 11 12 13 14 15 16 17 18 19 20 21 22 23 24 25 26 27 28 29 30 31 32 33 34 35 36 37 38 39 40 41 42 43 44 45 46 47 48 49 50
622
ASUS43 KFSD 261802
RWRSD

WEATHER ROUNDUP FOR SOUTH DAKOTA
NATIONAL WEATHER SERVICE SIOUX FALLS SD
100 PM CDT MON JUN 26 2017

NOTE: "FAIR" INDICATES FEW OR NO CLOUDS BELOW 12,000 FEET WITH NO
SIGNIFICANT WEATHER AND/OR OBSTRUCTIONS TO VISIBILITY.


SDZ001>005-009-010-012>017-261900-
NORTHWEST AND NORTH CENTRAL SOUTH DAKOTA

CITY           SKY/WX    TMP DP  RH WIND       PRES   REMARKS
BUFFALO          N/A     78  38  23 S14G21    30.11F
FAITH            N/A     71  42  35 SE9G20    30.21F
MOBRIDGE         N/A     71  41  33 SW8       30.20F
$$

SDZ012>016-024>037-041>051-057-063-072>074-261900-
SOUTHWEST AND SOUTH CENTRAL SOUTH DAKOTA

CITY           SKY/WX    TMP DP  RH WIND       PRES   REMARKS
RAPID CTY ARPT SUNNY     73  39  29 SE18G24   30.20F
PIERRE         SUNNY     71  41  33 E8        30.21F
CUSTER         SUNNY     66  35  31 VRB7      30.27F
ELLSWORTH AFB  SUNNY     74  38  27 S15G26    30.19F
PHILIP         SUNNY     74  41  30 E13G20    30.20F
PINE RIDGE     SUNNY     74  42  31 E8        30.22F
SPEARFISH      LGT RAIN  73  39  29 NE9       30.19F
WINNER         FAIR      75  41  29 NE9G23    30.22F
$$

SDZ004>011-016>023-039-040-261900-
NORTHEAST SOUTH DAKOTA

CITY           SKY/WX    TMP DP  RH WIND       PRES   REMARKS
ABERDEEN       SUNNY     67  38  34 VRB6      30.24F
WATERTOWN      SUNNY     65  39  38 NE10      30.23F
BROOKINGS      MOSUNNY   64  40  41 N7G16     30.23F
SISSETON         N/A     69  42  37 VRB5      30.22F
$$

SDZ017-020-022-023-036>040-048>070-261900-
SOUTHEAST SOUTH DAKOTA

CITY           SKY/WX    TMP DP  RH WIND       PRES   REMARKS
SIOUX FALLS    MOSUNNY   67  44  43 N12G17    30.22F
HURON          SUNNY     69  40  34 N9        30.24F
CHAMBERLAIN    SUNNY     72  41  32 NE8G17    30.22F
MITCHELL       SUNNY     70  38  31 N12G20    30.24S
YANKTON        SUNNY     69  45  41 N13G21    30.21S
$$

ABBREVIATIONS USED IN REMARKS
   TC - TEMPERATURE IN CELSIUS
  WCI - WIND CHILL INDEX
   HX - HEAT INDEX
  VSB - VISIBILITY





USA.gov is the U.S. government's official web portal to all federal, state and local government web resources and services.